STARLINK-1107 (44972 NORAD) Tracking and Keplerian Element Data

This shows tracking and keplerian element data for the satellite.

Feedback or suggestion? Click here.




ElementValue
Catalog44972
NameSTARLINK-1107
Epoch Orbit723
Epoch Day52.91667824
Epoch Year2020
RAAN168.8809
Inclination52.9957
Eccentricity0.0007155
Argument of Perigee1.66
Mean Anonmoly26.9347
Mean Motion15.73201661
Decay Rate0.0004392
L11 44972U 20001BL 20052.91667824 .00043920 00000-0 31523-3 0 9996
L22 44972 52.9957 168.8809 0007155 1.6600 26.9347 15.73201661 7231

Live tracking and technical data element details for STARLINK-1107 (NORAD 44972). STARLINK-1107 can be tracked NOW for your location showing map with azimuth and elevation plus other details from your city location.

Track the satellite on the map from your city or location and see movement details for azimuth, elevation, latitude, longitude, range, height, and movement on the map or in text.







IsCatalogInMostPopularTable: catalog: 44972, numindb: 21
Update: records affected: 1



GetName: 44972 STARLINK-1107

Hit Count: updated at: Wed, 26 Feb 2020 16:08:50 GMT